Regional Weather Roundup
Issued by NWS

Home | Current Version | Previous Version | Text Only | Print | Product List | Glossary Off
Versions: 1 2 3 4 5 6 7 8 9 10 11 12 13 14 15 16 17 18 19 20 21 22 23 24 25 26 27 28 29 30 31 32 33 34 35 36 37 38 39 40 41 42 43 44 45 46 47 48 49 50

000
ASUS43 KMKX 242211
RWRWI

WISCONSIN REGIONAL WEATHER ROUNDUP
NATIONAL WEATHER SERVICE MILWAUKEE/SULLIVAN WI
500 PM CDT WED AUG 24 2016

NOTE: "FAIR" INDICATES FEW OR NO CLOUDS BELOW 12,000 FEET WITH NO
SIGNIFICANT WEATHER AND/OR OBSTRUCTIONS TO VISIBILITY.

WIZ001-002-006>008-014>016-023>028-242300-
NORTHWEST WISCONSIN

CITY           SKY/WX    TMP DP  RH WIND       PRES   REMARKS
SUPERIOR ARPT  CLOUDY    80  57  45 W9G16     29.84S HX  80
ASHLAND        PTSUNNY   80  62  54 W10G25    29.84S HX  81
HAYWARD        PTSUNNY   77  60  55 SW7       29.89S
SIREN          MOSUNNY   78  54  43 W13G20    29.91R
CUMBERLAND     CLOUDY    75  54  46 W10       29.93R
RICE LAKE      CLOUDY    76  58  53 W9        29.94R
CHETEK         NOT AVBL
LADYSMITH      MOSUNNY   77  66  68 W8        29.93R
EAU CLAIRE     PTSUNNY   79  64  60 W9        29.92R HX  81
MENOMONIE      MOSUNNY   79  65  61 W7        29.93R HX  81
NEW RICHMOND   CLOUDY    76  60  56 W9        29.94R
OSCEOLA        CLOUDY    77  55  46 W13       29.96R
$$

WIZ003>005-009-010-017-018-242300-
NORTH CENTRAL WISCONSIN

CITY           SKY/WX    TMP DP  RH WIND       PRES   REMARKS
MANITOWISH WTR NOT AVBL
ARBOR VITAE    PTSUNNY   74  66  75 W10G18    29.89S
WOODRUFF       PTSUNNY   74  66  75 W10G18    29.89S
RHINELANDER    PTSUNNY   75  66  73 W14G21    29.90R
EAGLE RIVER    CLOUDY    74  63  69 W12G17    29.88F
LAND O LAKES   MOSUNNY   74  64  69 W8G18     29.89S
PHILLIPS       CLOUDY    73  67  80 W5        29.89F
TOMAHAWK       CLOUDY    73  64  73 W8        29.91R
MEDFORD        CLOUDY    73  68  83 W7        29.93R
MERRILL        CLOUDY    75  65  70 W12       29.91R
$$

WIZ029-030-035-036-043>047-242300-
CENTRAL WISCONSIN

CITY           SKY/WX    TMP DP  RH WIND       PRES   REMARKS
WAUSAU         CLOUDY    78  65  63 W13       29.89R HX  80
MOSINEE        MOSUNNY   75  68  78 W10       29.92R
MARSHFIELD     CLOUDY    78  67  68 W10       29.91S HX  80
STEVENS POINT  PTSUNNY   77  69  76 W7        29.91S
WAUPACA        PTSUNNY   82  71  71 W6        29.90R HX  86
WAUTOMA        NOT AVBL
WISC RAPIDS    PTSUNNY   80  72  76 W9        29.92S HX  84
CAMP DOUGLAS   PTSUNNY   81  73  78 W7        29.91R HX  85
$$

WIZ011>013-019>022-031-037>040-048>050-242300-
NORTHEAST WISCONSIN

CITY           SKY/WX    TMP DP  RH WIND       PRES   REMARKS
ANTIGO         MOSUNNY   76  67  71 W13G21    29.90S
SHAWANO        MOSUNNY   81  69  67 W10       29.88R HX  83
OCONTO         NOT AVBL
STURGEON BAY   CLOUDY    77  71  82 W9        29.86
GREEN BAY      MOSUNNY   80  72  76 W15G22    29.87R HX  84
MANITOWOC      CLOUDY    81  70  69 MISG      29.88R HX  84
APPLETON       PTSUNNY   79  68  69 W15       29.88R HX  81
CLINTONVILLE   CLOUDY    79  68  69 W12G17    29.88R HX  81
OSHKOSH        CLOUDY    78  70  76 W12G17    29.89R HX  80
$$

WIZ032>034-041-042-053>061-242300-
SOUTHWEST WISCONSIN

CITY           SKY/WX    TMP DP  RH WIND       PRES   REMARKS
LA CROSSE      SUNNY     82  32  16 NW12      29.91R HX  80
SPARTA         PTSUNNY   80  70  72 W9        29.93R HX  83
VIROQUA        MOSUNNY   81  72  72 NW6       29.94R HX  85
BOSCOBEL       PTSUNNY   84  73  69 W8        29.92R HX  90
PRAIRIE DU CHI CLOUDY    79  69  72 W7        29.92S HX  82
PLATTEVILLE    MOSUNNY   84  75  75 SW13      29.94S HX  92
$$

WIZ056-057-062-063-064-067-068-242300-
SOUTH CENTRAL WISCONSIN

CITY           SKY/WX    TMP DP  RH WIND       PRES   REMARKS
REEDSBURG      NOT AVBL
BARABOO/DELLS  MOSUNNY   80  70  71 W10G17    29.92R HX  84
LONE ROCK      LGT RAIN  82  74  76 NW7       29.91R HX  88
MINERAL POINT  MOSUNNY   84  73  70 SW8       29.94R HX  91
MADISON        CLOUDY    82  72  71 CALM      29.91R HX  87
MIDDLETON      CLOUDY    83  73  71 W7        29.92R HX  89
WATERTOWN      MOSUNNY   83  74  73 SW7       29.90S HX  89
MONROE         MOSUNNY   82  70  65 W13       29.94R HX  86
JANESVILLE     MOSUNNY   84  72  65 SW10      29.92R HX  89
$$

WIZ051-052-058>065-066-070>072-242300-
SOUTHEAST WISCONSIN

CITY           SKY/WX    TMP DP  RH WIND       PRES   REMARKS
MILWAUKEE      PTSUNNY   87  69  54 W12       29.90R HX  91
WAUKESHA       PTSUNNY   81  70  69 W13       29.93R HX  84
MILWAUKEE/TIMM MOSUNNY   82  66  57 W12G18    29.91R HX  85
RACINE         SUNNY     84  70  62 W9        29.92R HX  88
BURLINGTON     MOSUNNY   81  69  66 W7        29.92S HX  84
KENOSHA        SUNNY     82  71  69 W9        29.91S HX  86
FOND DU LAC    CLOUDY    80  71  74 W12       29.90R HX  84
SHEBOYGAN      NOT AVBL
WEST BEND      MOSUNNY   81  70  69 W12       29.90S HX  84
JUNEAU         CLOUDY    80  71  74 W10       29.92R HX  84
$$

LSZ147-162-242300-
LAKE SUPERIOR

STATION/POSITION TIME  TEMP    WIND        PRES    WAVE
                       AIR SEA DIR/SP/G            HT/PER
                 (UTC) (F)     (DEG/KT/KT) (MB)    (FT/S)
W MID LAKE BUOY  2150   70 69  210/ 10/ 12 1008.1S   1/ 3
DEVILS ISLAND    2200   75     230/ 18/ 20 1008.8F
SAXON HARBOR     2100   79     230/  8/ 13 1009.8S
$$

LMZ867-665-643>646-242300-
LAKE MICHIGAN

STATION/POSITION TIME  TEMP    WIND        PRES    WAVE
                       AIR SEA DIR/SP/G            HT/PER
                 (UTC) (F)     (DEG/KT/KT) (MB)    (FT/S)
CHAMBERS ISLAND  2100   72     190/  5/ 10 1010.5
S GREEN BAY BUOY 2130   76 73  260/ 10/ 14 1010.8R
N MID LAKE BUOY  2150   71 70  220/ 16/ 19 1009.8R   7/ 7
NORTHPORT PIER   2100   72     230/  4/ 10 1010.5
SISTER BAY       2107   72     270/  9/ 10   N/A
KEWAUNEE LAKESHO 2100          260/  9/ 15 1010.7S
SHEBOYGAN LAKESH 2200   82     240/ 10/ 12 1011.0R
PORT WASHINGTON  2140   85     250/  7/ 15 1012.5S
ATWATER BUOY     2100   74 46  240/  6/  8   N/A
MILWAUKEE LAKESH 2110   82     230/ 12/ 15   N/A
S MID LAKE BUOY  2150   75 74  180/  8/ 10 1012.3S   4/ 6
KENOSHA   LAKESH 2200   83     270/ 13/ 16 1012.2S
$$

TC  - TEMPERATURE IN CELSIUS
VSB - VISIBILITY IN STATUTE MILES
WCI - WIND CHILL INDEX
HX  - HEAT INDEX





USA.gov is the U.S. government's official web portal to all federal, state and local government web resources and services.